Regional Weather Roundup
Issued by NWS Goodland, KS

Home | Current Version | Previous Version | Text Only | Print | Product List | Glossary Off
Versions: 1 2 3 4 5 6 7 8 9 10 11 12 13 14 15 16 17 18 19 20 21 22 23 24 25 26 27 28 29 30 31 32 33 34 35 36 37 38 39 40 41 42 43 44 45 46 47 48 49 50

371
ASUS43 KGLD 230508
RWRGLD

GOODLAND FORECAST AREA HOURLY WEATHER ROUNDUP
NATIONAL WEATHER SERVICE GOODLAND KS
1000 PM MST WED FEB 22 2017

...OFFICIAL OBSERVATIONS...

CITY           SKY/WX    TMP DP  RH WIND       PRES   REMARKS
GOODLAND KS    CLOUDY    38  22  52 E10       29.68F
HILL CITY KS   CLEAR     41  25  53 NE8       29.71S
IMPERIAL NEB   CLEAR     39  21  48 NE9       29.72F
MCCOOK NEB     CLEAR     40  24  53 NE10      29.72F
AKRON CO       CLEAR     30  15  53 N10       29.73F
BURLINGTON CO  CLOUDY    42  21  43 E10       29.69F
LIMON CO       CLEAR     38  19  46 N10G18    29.70F
$$

...UNOFFICIAL OBSERVATIONS...

CITY           SKY/WX    TMP DP  RH WIND       PRES   REMARKS
LENORA KS        N/A     44  32  63 CALM        N/A
NORTON KS      CLEAR     45  25  45 NE9       29.72S
SHARON SPRINGS   N/A     45  25  45 E8          N/A
TRENTON NEB      N/A     44  32  63 E9          N/A
KIT CARSON CO    N/A     44  24  44 MISG        N/A
YUMA CO        FAIR      32  18  55 N8        29.72F
$$




USA.gov is the U.S. government's official web portal to all federal, state and local government web resources and services.